Flag for Germany Weather past 2 weeks in Euskirchen, North Rhine-Westphalia, Germany

Now
36 °F

Passing clouds.


Feels Like: 30 °F
Forecast: 36 / 44 °F
Wind: 7 mph from Southwest

Location: Noervenich

Current Time: Mar 4, 2015 at 3:54:15 AM

Latest Report: Mar 4, 2015 at 2:20 AM


Visibility: N/A

Pressure: 30.12 "Hg

Humidity: 87%

Dew point: 32 °F

Location of EuskirchenLocation

Historic Weather in Euskirchen — Graph

°F

Euskirchen temperature yesterday

Maximum temperature yesterday: 50 °F (at 2:20 PM)
Minimum temperature yesterday: 37 °F (at 12:20 AM)
Average temperature yesterday: 41 °F

Past Weeks' High & Low Weather Summary

 TemperatureHumidityPressure
High52 °F (Mar 1, 11:20 AM)100% (Feb 17, 6:20 AM)30.74 "Hg (Feb 17, 6:20 AM)
Low27 °F (Feb 19, 7:20 AM)50% (Feb 28, 1:20 PM)29.36 "Hg (Feb 21, 4:20 AM)
Average40 °F80%29.96 "Hg
* Reported Feb 17 2:20 AM — Mar 4 2:20 AM, Euskirchen, Weather by CustomWeather, © 2015

Note: Actual official high and low records may vary slightly from our data, if they occured in-between our weather recording intervals... More about our weather records

Advertising

Euskirchen weather history for previous 24 hours

 ConditionsComfort  
Time TempWeatherWind HumidityBarometerVisibility
2:20 AM
Wed, Mar 4
36 °FPassing clouds.7 mph87%30.12 "HgN/A
1:20 AM37 °FPassing clouds.14 mph81%30.12 "HgN/A
12:20 AM37 °FPassing clouds.12 mph87%30.09 "HgN/A
11:20 PM
Tue, Mar 3
37 °FPassing clouds.6 mph87%30.09 "HgN/A
10:20 PM37 °FSprinkles. Partly cloudy.8 mph87%30.09 "HgN/A
9:20 PM37 °FSprinkles. Partly cloudy.13 mph93%30.07 "HgN/A
8:20 PM37 °FSprinkles. Partly cloudy.8 mph93%30.07 "HgN/A
7:20 PM41 °FPassing clouds.10 mph81%30.01 "HgN/A
6:20 PM41 °FPartly cloudy.6 mph81%30.01 "HgN/A
5:20 PM43 °FRain showers. Fog.10 mph87%30.01 "Hg2 mi
4:20 PM43 °FLight rain. Partly sunny.10 mph81%30.01 "Hg5 mi
3:20 PM46 °FLight rain. Partly sunny.12 mph62%29.98 "HgN/A
2:20 PM50 °FBroken clouds.13 mph50%29.98 "HgN/A
1:20 PM48 °FPartly sunny.14 mph54%30.01 "HgN/A
12:45 PM46 °FBroken clouds.9 mph57%30.01 "HgN/A
12:20 PM46 °FBroken clouds.10 mph57%30.04 "HgN/A
11:20 AM45 °FPartly sunny.8 mph61%30.07 "HgN/A
10:20 AM45 °FBroken clouds.7 mph57%30.07 "HgN/A
9:20 AM43 °FPartly sunny.6 mph66%30.07 "HgN/A
8:20 AM39 °FPartly sunny.6 mph70%30.07 "HgN/A
7:20 AM37 °FPassing clouds.8 mph75%30.07 "HgN/A
6:20 AM39 °FPassing clouds.13 mph75%30.07 "HgN/A
5:20 AM39 °FPassing clouds.10 mph75%30.04 "HgN/A
4:20 AM39 °FPassing clouds.10 mph75%30.04 "HgN/A
3:20 AM37 °FPassing clouds.12 mph81%30.04 "HgN/A
Weather by CustomWeather, © 2015

See weather overviewHow to use our weather pages